Location: Westminster
(33.3626°N, 96.4619°W)
Time: 10:53:31
(UTC+00:00)

USA 215 - Pass Details

Date: 03 December 2021
Orbit: 1099 x 1109 km, 123.0° (Epoch: 14 January)

Event Time Altitude Azimuth Distance (km) Brightness Sun altitude
Rises 12:06:26 0° 120° (ESE) 3,909 7.9 -13.8°
Reaches altitude 10° 12:08:58 10° 116° (ESE) 2,952 7.0 -13.3°
Maximum altitude 12:15:16 54° 41° (NE) 1,317 3.8 -12.1°
Drops below altitude 10° 12:21:34 10° 327° (NNW) 2,956 5.0 -10.8°
Enters shadow 12:22:33 - 325° (NW) 3,327 5.3 -10.6°
